Location: Arthez
(43.0833°N, 0.2500°W)
Time: 06:41:50
(UTC+00:00)

Cosmos 304 Rocket - Pass Details

Date: 30 May 2022
Orbit: 679 x 686 km, 74.0° (Epoch: 03 July)

Event Time Altitude Azimuth Distance (km) Brightness Sun altitude
Exits shadow 00:28:00 82° 245° (WSW) 698 3.6 -24.8°
Maximum altitude 00:28:09 85° 289° (WNW) 695 3.7 -24.8°
Drops below altitude 10° 00:32:59 10° 19° (NNE) 2,143 7.3 -24.7°
Sets 00:35:19 0° 20° (NNE) 3,063 8.4 -24.6°
